[[{"header":{"parameterUnit":"m.s-1","parameterCategory":1,"la1":30.2992,"la2":30.254,"lo1":-89.0895,"lo2":-89.0443,"dy":0.0025,"dx":0.0025,"nx":19,"ny":19,"refTime":"2026-04-22T09:00:00:Z","depth":0,"parameterNumber":2,"parameterNumberName":"U-component_of_WINDS"},"data":[0,0,0,-4.3287,-4.329,-4.339,-4.3391,-4.3526,-4.3528,0,0,0,0,0,0,0,0,0,0,0,-4.326,-4.3261,-4.3287,-4.329,-4.339,-4.3391,-4.3526,-4.3528,0,0,0,0,0,0,0,0,0,0,0,-4.3259,-4.3261,-4.3262,-4.329,-4.339,-4.3391,-4.3526,-4.3448,0,0,0,0,0,0,0,0,0,0,-4.3349,-4.3325,-4.326,-4.3262,-4.3291,-4.339,-4.3391,-4.3444,-4.3453,-4.3483,0,-4.3509,0,-4.3521,-4.3537,-4.3538,0,0,0,-4.3288,-4.3318,-4.3343,-4.3262,-4.3292,-4.339,-4.3345,-4.3449,-4.3459,-4.3495,-4.3511,-4.3516,-4.3523,-4.3538,-4.3539,-4.3718,-4.3719,0,0,-4.3283,-4.3279,-4.3336,-4.335,-4.3333,-4.3341,-4.3348,-4.3455,-4.3473,-4.3512,-4.3519,-4.3525,-4.3539,-4.354,-4.3717,-4.3718,0,0,0,-4.3268,-4.3275,-4.3298,-4.3344,-4.3362,-4.3344,-4.3352,-4.3468,-4.3476,-4.3521,-4.3527,-4.354,-4.3541,-4.3716,-4.3717,-4.3757,0,0,0,-4.3264,-4.3267,-4.3296,-4.3294,-4.336,-4.3416,-4.3363,-4.3468,-4.348,-4.3526,-4.354,-4.3543,-4.3715,-4.3717,-4.3753,-4.3774,0,0,0,-4.3253,-4.3265,-4.3281,-4.3294,-4.3337,-4.3414,-4.3428,-4.3471,-4.3484,-4.3538,-4.3543,-4.3714,-4.3716,-4.375,-4.377,-4.3819,0,0,0,-4.3239,-4.3314,-4.3281,-4.3369,-4.3336,-4.3439,-4.3427,-4.3504,-4.3554,-4.354,-4.3715,-4.3717,-4.3749,-4.3767,-4.3816,-4.3858,-4.3875,0,0,-4.3332,-4.3325,-4.3377,-4.3351,-4.3457,-4.3423,-4.3537,-4.3587,-4.3597,-4.3677,-4.3682,-4.3754,-4.3769,-4.3819,-4.3983,-4.3997,0,0,0,-4.3405,-4.3442,-4.3471,-4.3519,-4.356,-4.3597,-4.3631,-4.365,-4.3719,-4.3637,-4.3788,-4.3797,-4.3826,-4.3846,-4.3858,-4.3882,-4.3727,-4.3727,-4.3727,-4.3528,-4.3537,-4.3623,-4.3645,-4.3693,-4.3729,-4.3768,-4.3801,-4.3795,-4.3831,-4.3853,-4.3952,-4.3975,-4.3984,-4.401,-4.3879,-4.388,-4.388,-4.388,-4.3662,-4.3715,-4.371,-4.379,-4.3801,-4.387,-4.391,-4.3905,-4.3971,-4.3935,-4.3961,-4.3917,-4.3999,-4.4022,-4.3883,-4.3882,-4.3882,-4.3882,-4.3882,-4.374,-4.3767,-4.379,-4.3863,-4.3919,-4.3941,-4.4005,-4.4014,-4.4022,-4.4048,-4.4072,-4.4071,-4.4069,-4.406,-4.406,-4.4061,-4.4061,-4.4061,-4.4061,-4.3809,-4.3835,-4.3887,-4.3941,-4.3974,-4.402,-4.4061,-4.4095,-4.4134,-4.4135,-4.4135,-4.4126,-4.4007,-4.3974,-4.4067,-4.4066,-4.4065,-4.4065,-4.4064,-4.3935,-4.3909,-4.3989,-4.4023,-4.4088,-4.4143,-4.4156,-4.4225,-4.4255,-4.4287,-4.4275,-4.4187,-4.418,-4.417,-4.4143,-4.4274,-4.4274,-4.4274,-4.4274,-4.3997,-4.3997,-4.4082,-4.4136,-4.419,-4.421,-4.4304,-4.434,-4.4372,-4.4392,-4.4376,-4.4343,-4.4333,-4.4332,-4.4319,-4.4293,-4.4459,-4.4459,-4.446,-4.4074,-4.408,-4.4155,-4.4186,-4.4239,-4.4285,-4.4373,-4.4438,-4.447,-4.4467,-4.4407,-4.4399,-4.4346,-4.4328,-4.4318,-4.4297,-4.4251,0,0]},{"header":{"parameterUnit":"m.s-1","parameterCategory":1,"la1":30.2992,"la2":30.254,"lo1":-89.0895,"lo2":-89.0443,"dy":0.0025,"dx":0.0025,"nx":19,"ny":19,"refTime":"2026-04-22T09:00:00:Z","depth":0,"parameterNumber":3,"parameterNumberName":"V-component_of_WINDS"},"data":[0,0,0,2.6449,2.645,2.6476,2.6476,2.6485,2.6484,0,0,0,0,0,0,0,0,0,0,0,2.6426,2.6426,2.6449,2.645,2.6476,2.6476,2.6485,2.6484,0,0,0,0,0,0,0,0,0,0,0,2.6426,2.6426,2.6425,2.645,2.6476,2.6476,2.6485,2.6474,0,0,0,0,0,0,0,0,0,0,2.6453,2.6416,2.6426,2.6425,2.645,2.6476,2.6476,2.6474,2.6474,2.6462,0,2.6446,0,2.6465,2.6483,2.6483,0,0,0,2.6461,2.6415,2.6436,2.6425,2.645,2.6476,2.6467,2.6474,2.6475,2.6463,2.6447,2.6448,2.6466,2.6483,2.6483,2.6374,2.6373,0,0,2.646,2.6422,2.6436,2.6436,2.643,2.6466,2.6468,2.6475,2.6455,2.6447,2.6448,2.6466,2.6483,2.6483,2.6375,2.6373,0,0,0,2.6448,2.6421,2.6443,2.6435,2.6442,2.6467,2.6469,2.6455,2.6465,2.6449,2.6466,2.6483,2.6483,2.6376,2.6374,2.6287,0,0,0,2.6447,2.6414,2.6441,2.6419,2.6441,2.6449,2.6448,2.6465,2.6467,2.6466,2.6483,2.6483,2.6377,2.6375,2.6292,2.6252,0,0,0,2.643,2.6412,2.6411,2.6417,2.6427,2.6449,2.646,2.6466,2.6477,2.6483,2.6483,2.6378,2.6375,2.6297,2.626,2.6214,0,0,0,2.64,2.6332,2.6409,2.6339,2.6426,2.6395,2.6461,2.6439,2.6435,2.6483,2.6377,2.6374,2.6298,2.6264,2.6218,2.6169,2.6144,0,0,2.6293,2.6317,2.628,2.635,2.6295,2.6394,2.6328,2.6358,2.6392,2.6378,2.6376,2.629,2.626,2.6215,2.602,2.6001,0,0,0,2.6233,2.6206,2.62,2.6194,2.6216,2.6232,2.6277,2.6289,2.6279,2.6377,2.6262,2.6245,2.622,2.6198,2.6182,2.6163,2.6362,2.6363,2.6363,2.6028,2.6077,2.6019,2.607,2.6064,2.6112,2.6112,2.6136,2.6185,2.6157,2.6154,2.603,2.6003,2.5991,2.597,2.6131,2.6131,2.613,2.613,2.5877,2.5847,2.5916,2.5884,2.5936,2.591,2.5954,2.599,2.5974,2.6036,2.6016,2.6081,2.5968,2.5953,2.6124,2.6125,2.6126,2.6126,2.6127,2.5749,2.5744,2.5759,2.5758,2.575,2.5806,2.5787,2.5835,2.5879,2.586,2.5862,2.5864,2.5872,2.5858,2.5857,2.5857,2.5856,2.5856,2.5856,2.5611,2.5632,2.5611,2.5629,2.5633,2.5644,2.5692,2.5697,2.5715,2.5751,2.5751,2.5805,2.5947,2.5982,2.5849,2.585,2.5851,2.5852,2.5852,2.5441,2.5488,2.5454,2.5458,2.5486,2.5476,2.5538,2.5544,2.5555,2.5544,2.5602,2.57,2.5728,2.5741,2.5771,2.5591,2.5591,2.5591,2.5591,2.5334,2.5353,2.5331,2.5334,2.5343,2.5395,2.5357,2.5395,2.544,2.5451,2.5483,2.5527,2.5538,2.556,2.5577,2.5606,2.5388,2.5388,2.5388,2.5233,2.5256,2.5214,2.526,2.5285,2.5306,2.5273,2.5274,2.5335,2.538,2.546,2.5468,2.5539,2.5559,2.5606,2.5632,2.5685,0,0]}]]